#timestamp,LO_Frequency,Hit,StdDev 
1649930415.9,286047001.0,N
1649930435.7,286047001.1,N
1649930455.6,286047000.7,N
1649930475.4,286047000.8,N
1649930495.2,286046999.7,N
1649930515.1,286047000.5,N
1649930516.0,286047000.5,N
1649930535.8,286047001.2,N
1649930555.7,286046998.2,N
1649930575.5,286046998.4,N
1649930595.3,286046998.2,N
1649930615.2,286047004.3,N
1649930635.9,286047000.8,N
1649930655.7,286046998.3,N
1649930675.6,286047000.5,N
1649930695.4,286046998.3,N
1649930715.2,286046998.3,N
1649930735.1,286046994.9,Y
1649930736.0,286046994.9,P
1649930755.8,286046995.4,N
1649930775.7,286046995.2,N
1649930795.5,286046997.8,N
1649930815.3,286046997.3,N
1649930835.2,286046997.1,N
1649930855.0,286046997.4,N
1649930855.9,286046997.4,N
1649930875.8,286046997.6,N
1649930895.6,286046999.3,N
1649930915.4,286046999.2,N
1649930935.3,286046997.0,N
1649930955.1,286046997.0,N
1649930975.8,286046997.1,N
1649930995.7,286046997.4,N
1649931015.5,286046998.0,N
1649931035.4,286046995.3,Y
1649931055.2,286046999.5,P
1649931075.0,286046999.6,N
1649931075.9,286046999.6,N
1649931095.8,286046999.3,N
1649931115.6,286047000.8,N
1649931135.4,286047000.9,N
1649931155.3,286046996.5,Y
1649931175.1,286046999.6,P
1649931195.9,286046999.0,P
1649931215.7,286046997.8,P
1649931235.5,286046994.9,Y
1649931255.4,286046996.7,P
1649931275.2,286046995.2,P
1649931295.0,286046996.1,N
1649931295.9,286046996.1,N
1649931315.8,286046995.3,Y
1649931335.6,286046998.5,P
1649931355.5,286046998.1,N
1649931375.3,286047000.4,N
1649931395.1,286047000.6,N
1649931415.9,286046999.7,N
1649931435.7,286046998.3,N
1649931455.5,286047000.2,N
1649931475.4,286047000.2,N
1649931495.2,286047002.7,N
1649931515.1,286047002.8,N
1649931516.0,286047002.8,N
1649931535.8,286047000.3,N
1649931555.6,286046999.3,N
1649931575.5,286046997.0,N
1649931595.3,286046999.5,N
1649931615.1,286046998.1,N
1649931635.9,286047000.9,N
1649931655.7,286047002.8,N
1649931675.6,286047000.7,N
1649931695.4,286046998.5,N
1649931715.2,286046999.7,N
1649931735.1,286047000.5,N
1649931736.0,286047000.5,N
1649931755.8,286047002.0,N
1649931775.6,286047001.7,N
1649931795.5,286047002.3,N
1649931815.3,286047002.3,N
1649931835.2,286047001.8,N
1649931855.9,286047002.2,N
1649931875.7,286047003.9,N
1649931895.6,286047004.1,N
1649931915.4,286047004.2,N
1649931935.2,286047004.3,N
1649931955.1,286047003.4,N
1649931956.0,286047003.4,N
1649931975.8,286047005.9,Y
1649931995.7,286047001.6,P
1649932015.5,286047004.4,P
1649932035.3,286047001.4,N
1649932055.2,286047004.3,Y
1649932075.0,286047000.5,P
1649932075.9,286047000.5,N
1649932095.8,286047000.2,N
1649932115.6,286047000.5,N
1649932135.4,286046999.4,N
1649932155.3,286046995.6,Y
1649932175.1,286046997.6,P
1649932195.8,286046997.8,N
1649932215.7,286046997.4,N
1649932235.5,286046995.3,Y
1649932255.4,286046996.6,P
1649932275.2,286046999.2,N
1649932295.0,286046998.0,N
1649932295.9,286046998.0,N
1649932315.8,286046995.8,Y
1649932335.6,286046995.6,P
1649932355.5,286046996.1,P
1649932375.3,286046994.6,P
1649932395.1,286046992.1,Y
1649932415.9,286046998.4,P
1649932435.7,286046999.0,N
1649932455.5,286046999.4,N
1649932475.4,286046998.5,N
1649932495.2,286047002.3,N
1649932515.1,286047000.2,N
1649932516.0,286047000.2,N
1649932535.8,286046998.6,N
1649932555.6,286047000.5,N
1649932575.5,286047000.9,N
1649932595.3,286046997.3,N
1649932615.1,286046997.9,N
1649932635.9,286046993.9,Y
1649932655.7,286046993.3,P
1649932675.6,286046994.7,N
1649932695.4,286046993.6,N
1649932715.2,286046996.2,N
1649932735.1,286046991.7,Y
1649932736.0,286046991.7,P
1649932755.8,286046999.5,N
1649932775.6,286046999.7,N
1649932795.5,286047002.3,N
1649932815.3,286047002.1,N
1649932835.2,286047003.9,N
1649932855.9,286047004.0,N
1649932875.7,286047005.9,N
1649932895.6,286047005.8,N
1649932915.4,286047005.0,N
1649932935.2,286047005.8,N
1649932955.1,286047006.4,N
1649932956.0,286047006.4,N
1649932975.8,286047005.5,N
1649932995.7,286047004.7,N
1649933015.5,286047005.7,N
1649933035.3,286047005.4,N
1649933055.2,286047004.3,N
1649933075.0,286047001.5,N
1649933075.9,286047001.5,N
1649933095.7,286047000.4,N
1649933115.6,286046999.9,N
1649933135.4,286047000.3,N
1649933155.3,286046999.8,N
1649933175.1,286047002.4,N
1649933176.0,286047002.4,N
1649933195.8,286047000.6,N
1649933215.7,286046999.1,N
1649933235.5,286046995.4,N
1649933255.4,286046998.0,N
1649933275.2,286046999.4,N
1649933295.0,286046998.1,N
1649933295.9,286046998.1,N
1649933315.8,286047001.2,N
1649933335.6,286046999.8,N
1649933355.4,286047000.3,N
1649933375.3,286047002.8,N
1649933395.1,286047000.9,N
1649933415.9,286047000.6,N
1649933435.7,286047000.9,N
1649933455.5,286047000.8,N
1649933475.4,286047000.2,N
1649933495.2,286047000.5,N
1649933515.0,286047002.4,N
1649933515.9,286047002.4,N
1649933535.8,286046999.8,N
1649933555.6,286047002.1,N
1649933575.5,286047000.1,N
1649933595.3,286047002.4,N
1649933615.1,286046999.9,N
1649933635.9,286047002.8,N
1649933655.7,286047001.9,N
1649933675.5,286046999.8,N
1649933695.4,286047002.4,N
1649933715.2,286047003.5,N
1649933735.1,286047004.0,N
1649933736.0,286047004.0,N
1649933755.8,286047004.2,N
1649933775.6,286047003.7,N
1649933795.5,286047001.4,N
1649933815.3,286047004.2,N
1649933835.1,286047002.8,N
1649933855.9,286047002.4,N
1649933875.7,286047000.8,N
1649933895.6,286047000.2,N
1649933915.4,286047002.8,N
1649933935.2,286047002.8,N
1649933955.1,286047000.1,N
1649933956.0,286047000.1,N
1649933975.8,286047001.8,N
1649933995.6,286047003.4,N
